Regional Weather Roundup
Issued by NWS

Home | Current Version | Previous Version | Graphics & Text | Print | Product List | Glossary On
Versions: 1 2 3 4 5 6 7 8 9 10 11 12 13 14 15 16 17 18 19 20 21 22 23 24 25 26 27
000
ASUS45 KBOI 230210
RWRID

IDAHO REGIONAL WEATHER ROUNDUP
NATIONAL WEATHER SERVICE BOISE ID
700 PM MST WED FEB 22 2017

NOTE: "FAIR" INDICATES FEW OR NO CLOUDS BELOW 12000 FEET
WITH NO SIGNIFICANT WEATHER AND/OR OBSTRUCTIONS TO VISIBILITY

IDZ012-014-230300-
SOUTHWEST IDAHO


CITY           SKY/WX    TMP DP  RH WIND       PRES   REMARKS
BOISE          FLURRIES  36  28  73 NW13      29.88S WCI  27
CALDWELL       LGT RAIN  36  30  79 W15       29.91F WCI  27
MOUNTAIN HOME  CLOUDY    34  34 100 NW22      29.85S WCI  23
$$

IDZ016-017-230300-
SOUTHCENTRAL IDAHO


CITY           SKY/WX    TMP DP  RH WIND       PRES   REMARKS
BURLEY         LGT SNOW  33  30  88 S5        29.79S FOG     WCI  29
JEROME           N/A    N/A N/A N/A MISG      29.81F
TWIN FALLS     CLOUDY    30  27  88 SW15      29.79F WCI  19
$$

IDZ019>023-230300-
SOUTHEAST IDAHO


CITY           SKY/WX    TMP DP  RH WIND       PRES   REMARKS
IDAHO FALLS    CLOUDY    31  27  85 VRB6      29.79F WCI  25
POCATELLO      CLOUDY    33  26  75 E3        29.79F
REXBURG        CLOUDY    32  25  75 NE5       29.80F WCI  27
$$

IDZ006-010-011-018-031-032-230300-
CENTRAL IDAHO MOUNTAINS


CITY           SKY/WX    TMP DP  RH WIND       PRES   REMARKS
MCCALL         CLOUDY    27  21  78 NW6       29.81S WCI  20
HAILEY         CLOUDY    28  21  74 CALM      29.78F
STANLEY          N/A     26  17  68 SE3       29.75F
SALMON         CLOUDY    32  27  80 S3        29.82F
CHALLIS        CLOUDY    28  21  75 N3        29.78F
$$

IDZ002-004-006-007-026-230300-
NORTHERN IDAHO


CITY           SKY/WX    TMP DP  RH WIND       PRES   REMARKS
LEWISTON       CLOUDY    40  27  59 W10       30.04S WCI  33
LOWELL           N/A     36  33  89 CALM      30.04S
COEUR D`ALENE  PTCLDY    29  27  92 CALM      30.03R
MULLAN PASS    CLOUDY    20  19  96 N5        29.86S FOG     WCI  13
$$




USA.gov is the U.S. government's official web portal to all federal, state and local government web resources and services.